Satellite: NO-44
Catalog number: 26931
Epoch time:      10014.63969060
Element set:     361
Inclination:      067.0518 deg
RA of node:       239.5749 deg
Eccentricity:    0.0006793
Arg of perigee:   267.4052 deg
Mean anomaly:     092.6287 deg
Mean motion:   14.29578988 rev/day
Decay rate:        2.1e-07 rev/day^2
Epoch rev:           43280
Checksum:              327

Satellite: SO-50
Catalog number: 27607
Epoch time:      10014.68935134
Element set:      78
Inclination:      064.5587 deg
RA of node:       102.7312 deg
Eccentricity:    0.0042268
Arg of perigee:   145.8026 deg
Mean anomaly:     214.5817 deg
Mean motion:   14.71490377 rev/day
Decay rate:       1.15e-06 rev/day^2
Epoch rev:           37979
Checksum:              309

Satellite: CO-55
Catalog number: 27844
Epoch time:      10013.57654836
Element set:     756
Inclination:      098.7112 deg
RA of node:       024.7586 deg
Eccentricity:    0.0009157
Arg of perigee:   257.8866 deg
Mean anomaly:     102.1292 deg
Mean motion:   14.20677674 rev/day
Decay rate:        2.2e-07 rev/day^2
Epoch rev:           33913
Checksum:              321

Satellite: CO-57
Catalog number: 27848
Epoch time:      10014.71078223
Element set:     707
Inclination:      098.7180 deg
RA of node:       024.9507 deg
Eccentricity:    0.0008851
Arg of perigee:   256.4498 deg
Mean anomaly:     103.5689 deg
Mean motion:   14.20474757 rev/day
Decay rate:        3.6e-07 rev/day^2
Epoch rev:           33925
Checksum:              326

Satellite: AO-51
Catalog number: 28375
Epoch time:      10013.54749693
Element set:    0580
Inclination:      098.0537 deg
RA of node:       015.9147 deg
Eccentricity:    0.0082990
Arg of perigee:   206.4886 deg
Mean anomaly:     153.2051 deg
Mean motion:   14.40665278 rev/day
Decay rate:        6.0e-08 rev/day^2
Epoch rev:           29124
Checksum:              313

Satellite: CO-56
Catalog number: 28941
Epoch time:      09297.68475575
Element set:     556
Inclination:      098.0955 deg
RA of node:       138.9518 deg
Eccentricity:    0.0011688
Arg of perigee:   319.8691 deg
Mean anomaly:     040.7485 deg
Mean motion:   16.46998778 rev/day
Decay rate:  1.4491492e-01 rev/day^2
Epoch rev:           20790
Checksum:              407

Satellite: GENESAT1
Catalog number: 29655
Epoch time:      10013.94410887
Element set:    0916
Inclination:      040.0193 deg
RA of node:       297.4037 deg
Eccentricity:    0.0006828
Arg of perigee:   282.6308 deg
Mean anomaly:     077.3816 deg
Mean motion:   15.72273575 rev/day
Decay rate:     2.9612e-04 rev/day^2
Epoch rev:           17557
Checksum:              320

Satellite: CP3
Catalog number: 31129
Epoch time:      10014.63677287
Element set:     470
Inclination:      097.9631 deg
RA of node:       062.2667 deg
Eccentricity:    0.0102245
Arg of perigee:   350.7489 deg
Mean anomaly:     009.1818 deg
Mean motion:   14.52199852 rev/day
Decay rate:       1.15e-06 rev/day^2
Epoch rev:           14557
Checksum:              307

Satellite: CO-65
Catalog number: 32785
Epoch time:      10014.72514359
Element set:     578
Inclination:      097.9183 deg
RA of node:       081.6327 deg
Eccentricity:    0.0016084
Arg of perigee:   065.3129 deg
Mean anomaly:     294.9768 deg
Mean motion:   14.81566738 rev/day
Decay rate:      -1.75e-06 rev/day^2
Epoch rev:            9276
Checksum:              349

Satellite: KKS-1
Catalog number: 33493
Epoch time:      10014.74271897
Element set:     117
Inclination:      098.0699 deg
RA of node:       133.1084 deg
Eccentricity:    0.0018888
Arg of perigee:   278.3288 deg
Mean anomaly:     081.5796 deg
Mean motion:   14.80820214 rev/day
Decay rate:       3.15e-06 rev/day^2
Epoch rev:            5277
Checksum:              321

Satellite: SOHLA-1
Catalog number: 33496
Epoch time:      10013.79598385
Element set:    0001
Inclination:      098.0478 deg
RA of node:       124.9936 deg
Eccentricity:    0.0006103
Arg of perigee:   342.8498 deg
Mean anomaly:     017.2514 deg
Mean motion:   14.69462862 rev/day
Decay rate:       -8.1e-07 rev/day^2
Epoch rev:           05220
Checksum:              302

/EX
SB KEPS @ AMSAT  $ORB10014.W
Orbital Elements  10014.WEATHER

HR AMSAT ORBITAL ELEMENTS FOR WEATHER SATELLITES
FROM WA5QGD FORT WORTH,TX January 14, 2010
Send Subscribe/unsubscribe to KEPS at 
http://www.amsat.org/mailman/listinfo/keps
BID: ORB10014.W
TO ALL RADIO AMATEURS BT

Satellite: NOAA-10
Catalog number: 16969
Epoch time:      10013.58971128
Element set:    0916
Inclination:      098.6734 deg
RA of node:       043.8853 deg
Eccentricity:    0.0011813
Arg of perigee:   306.0860 deg
Mean anomaly:     053.9219 deg
Mean motion:   14.27403850 rev/day
Decay rate:        1.3e-07 rev/day^2
Epoch rev:           21352
Checksum:              290

Satellite: NOAA-11
Catalog number: 19531
Epoch time:      10013.79881303
Element set:    0929
Inclination:      098.7763 deg
RA of node:       105.4333 deg
Eccentricity:    0.0010888
Arg of perigee:   226.5592 deg
Mean anomaly:     133.4681 deg
Mean motion:   14.14912397 rev/day
Decay rate:       1.16e-06 rev/day^2
Epoch rev:           09930
Checksum:              306

